Location: ????
(55.5675°N, 37.6272°E)
Time: 17:38:42
(UTC+00:00)

Gbstr 26 Del rocket - Pass Details

Date: 14 April 2026
Orbit: 490 x 1216 km, 51.8° (Epoch: 16 May)

Event Time Altitude Azimuth Distance (km) Brightness Sun altitude
Exits shadow 23:38:15 43° 154° (SSE) 706 3.1 -19.5°
Drops below altitude 10° 23:41:28 10° 99° (E) 1,683 5.6 -19.2°
Sets 23:43:40 0° 92° (E) 2,580 6.7 -19.0°
